Regional Weather Roundup
Issued by NWS Sterling, VA

Home | Current Version | Previous Version | Graphics & Text | Print | Product List | Glossary On
Versions: 1 2 3 4 5 6 7 8 9 10 11 12 13 14 15 16 17 18 19 20 21 22 23 24 25 26 27 28 29 30 31 32 33 34 35 36 37 38 39 40 41 42 43 44 45 46 47 48 49 50
000
ASUS41 KLWX 301711
RWRLWX

REGIONAL WEATHER ROUNDUP
NATIONAL WEATHER SERVICE BALTIMORE MD/WASHINGTON DC
100 PM EDT SAT JUL 30 2016

Note: "FAIR" indicates few or no clouds below 12,000 feet
with no significant weather and/or obstructions to visibility.
 TC=TEMPERATURE CELSIUS

 * =Non NWS site. Station does not report precipitation (e.g. rain,
    snow, etc.), thunder, or fog.

DCZ001-MDZ009-015-VAZ040>042-051-053>054-301800-
WASHINGTON METRO

CITY           SKY/WX    TMP DP  RH WIND       PRES   REMARKS
WASHINGTON NAT LGT RAIN  82  75  79 SW7G18    29.97F
DULLES         PTSUNNY   84  72  67 S12G20    29.98S
ANDREWS AFB    PTSUNNY   86  73  65 S14       29.97F HX  92
FT BELVOIR     FAIR      86  73  64 S12       29.97F HX  92
LEESBURG*      FAIR      88  77  70 S17G24    29.98S HX 100
MANASSAS*      MOSUNNY   82  73  74 S10       29.98F
GAITHERSBURG*  CLOUDY    75  66  73 SW7G24    30.03R

$$

MDZ006>007-011-014-301800-
BALTIMORE METRO

CITY           SKY/WX    TMP DP  RH WIND       PRES   REMARKS
BWI AIRPORT    PTSUNNY   86  71  60 S7G18     29.96F HX  91
MD SCIENCE CTR   N/A     88  70  55 MISG      29.96F HX  93
MARTIN STATE   PTSUNNY   88  79  74 SE13      29.98F HX 102
ANNAPOLIS      MOSUNNY  N/A N/A N/A CALM      29.97F
FORT MEADE*    MOSUNNY   82  72  69 S3        29.99F

$$

MDZ012-015-019>023-301800-
MARYLAND EASTERN SHORE

CITY           SKY/WX    TMP DP  RH WIND       PRES   REMARKS
OCEAN CITY     CLOUDY    82  73  74 S7        30.02S
SALISBURY      SUNNY     86  66  51 SE14      30.01S
BAY BRIDGE AP* PTSUNNY   88  75  66 S9        29.98S HX  97
CAMBRIDGE*     PTSUNNY   82  72  69 S6        29.99F
EASTON*        PTSUNNY   88  77  70 S9        30.03S HX 100

$$

MDZ017>025-301800-
SOUTHERN MARYLAND

CITY           SKY/WX    TMP DP  RH WIND       PRES   REMARKS
PATUXENT RIVER CLOUDY    82  71  69 SE12      29.99S
ST INIGOES     CLOUDY    83  73  72 E7        29.99S
LEONARDTOWN*   CLOUDY    81  72  74 SE8       30.01F

$$

MDZ003>005-301800-
NORTH CENTRAL MARYLAND

CITY           SKY/WX    TMP DP  RH WIND       PRES   REMARKS
FREDERICK*     CLOUDY    77  77 100 S8G17     30.00  FOG
HAGERSTOWN APT CLOUDY    82  73  74 S7        29.96F

$$

MDZ501>502-301800-
WESTERN MARYLAND

CITY           SKY/WX    TMP DP  RH WIND       PRES   REMARKS
OAKLAND*       CLOUDY    66  64  94 SW7       30.08S FOG
CUMBERLAND*    CLOUDY    84  72  65 S6        29.99F

$$

VAZ025>031-301800-
SHENANDOAH VALLEY

CITY           SKY/WX    TMP DP  RH WIND       PRES   REMARKS
WINCHESTER*    FAIR      86  72  62 S12G20    29.96F HX  92
FRONT ROYAL*   PTSUNNY   84  73  70 SE7       29.95F HX  91
LURAY*         NOT AVBL
NEW MARKET*    FAIR      87  69  55 SW8       29.95F HX  91
STAUNTON*      CLOUDY    83  73  69 SE7       30.01F
WAYNESBORO*    PTSUNNY   84  69  61 S5        30.01F

$$

WVZ021-048>050-054>055-301800-
EASTERN WEST VIRGINIA PANHANDLE

CITY           SKY/WX    TMP DP  RH WIND       PRES   REMARKS
MARTINSBURG    PTSUNNY   85  73  67 S9        29.94F HX  91
PETERSBURG*    FAIR      87  71  57 CALM      29.95F HX  93

$$

VAZ036>039-050-301800-
CENTRAL FOOTHILLS

CITY           SKY/WX    TMP DP  RH WIND       PRES   REMARKS
CHARLOTTESVILL FAIR      88  72  58 S14       29.97F HX  94
CULPEPER*      PTSUNNY   85  75  71 S7        29.98F HX  94
ORANGE*          N/A     86  72  62 S7        29.99F HX  92
GORDONSVILLE*  FAIR      85  75  70 S9        29.97F HX  93
WARRENTON*     PTSUNNY   86  69  56 S8        29.97F HX  90

$$

VAZ055>057-301800-
NORTH AND CENTRAL PIEDMONT

CITY           SKY/WX    TMP DP  RH WIND       PRES   REMARKS
FREDERICKSBRG* FAIR      83  77  82 S6        29.98F HX  92
STAFFORD*      PTSUNNY   82  73  74 S7        30.02F

$$

NCZ024-NYZ072-PAZ021-071-VAZ022-071-301800-
OTHER REGIONAL OBSERVATIONS

CITY           SKY/WX    TMP DP  RH WIND       PRES   REMARKS
NEW YORK CITY  PTSUNNY   80  68  66 E6        30.04S
PHILADELPHIA   CLOUDY    87  71  58 S13       29.99S HX  93
PITTSBURGH     CLOUDY    71  67  87 NE3       29.99S
ROANOKE        FAIR      85  69  58 SW7       30.03F
RICHMOND       TSTM      73  72  96 SE18      30.01R FOG
RALEIGH        PTSUNNY   91  73  55 SW14      29.97F HX  99

$$

ANZ530>537-301800-
MARINE OBSERVATIONS

STATION/POSITION TIME  TEMP    WIND        PRES
                       AIR SEA DIR/SP/G
                 (UTC) (F)     (DEG/KT/KT) (MB)
THOMAS PT LIGHT  1700   82 84  180/ 21/ 23 1016.1F
BALT KEY BRIDGE  1642   84     140/ 15/ 17 1014.3F
COVE POINT       1642   82     190/ 17/ 19 1016.3F
LEWISETTA        1642   83 86  150/  9/ 11 1015.4F
SOLOMONS ISLAND  1642   83 85  150/ 13/ 15   N/A
PINEY POINT      1636          170/  8/  9   N/A

$$




USA.gov is the U.S. government's official web portal to all federal, state and local government web resources and services.